StrixAluco completed 95 games.

StrixAluco defeated mahayse 33 to 25 at 2012-10-13 10:01:01
mahayse defeated StrixAluco 31 to 29 at 2012-10-04 00:20:10
arcane123 defeated StrixAluco 31 to 27 at 2012-09-14 21:44:08
StrixAluco defeated -=[anomie]=- 42 to 25 at 2012-09-14 19:00:11
BigDad777 defeated StrixAluco 30 to 20 at 2012-09-13 01:31:16
StrixAluco and ded.bob tied at 2012-09-13 01:07:58
rabbitkatg defeated StrixAluco 31 to 28 at 2012-09-12 20:45:56
StrixAluco defeated Emathan 39 to 37 at 2012-09-12 01:56:11
StrixAluco defeated anasaziman 44 to 36 at 2012-09-10 22:39:50
anasaziman defeated StrixAluco 40 to 34 at 2012-09-10 22:09:01
OMGFranco defeated StrixAluco 34 to 28 at 2012-09-10 21:49:56
hikerjules defeated StrixAluco 40 to 35 at 2012-09-09 02:50:50
StrixAluco defeated dannyaosu 39 to 34 at 2012-09-09 02:39:36
z~a defeated StrixAluco 34 to 28 at 2012-09-07 20:45:58
StrixAluco defeated bradywhite 39 to 27 at 2012-09-06 01:49:01
StrixAluco defeated loldham 30 to 27 at 2012-09-06 00:07:18
StrixAluco defeated devilman0279 47 to 25 at 2012-09-05 15:44:41
StrixAluco defeated EddieVanShatner 38 to 31 at 2012-08-22 22:29:00
StrixAluco defeated ~Nupkin~ 37 to 34 at 2012-08-19 21:06:52
StrixAluco defeated Logam Punyanitya 33 to 30 at 2012-08-19 20:10:18
RD1974 defeated StrixAluco 34 to 24 at 2012-08-02 02:29:38
Mark Biros defeated StrixAluco 34 to 22 at 2012-08-02 02:18:17
StrixAluco defeated *-(Button)-* 39 to 25 at 2012-07-24 21:27:02
StrixAluco defeated CKhouck 42 to 34 at 2012-07-22 22:28:33
StrixAluco defeated CKhouck 36 to 28 at 2012-07-20 02:10:50
StrixAluco defeated CKhouck 55 to 30 at 2012-07-20 01:03:07
StrixAluco and navyinphily tied at 2012-07-19 15:03:23
StrixAluco defeated R.D.Solis69 36 to 27 at 2012-07-19 05:09:14
StrixAluco defeated oldlamehand 33 to 30 at 2012-07-19 04:59:26
oldlamehand defeated StrixAluco 33 to 25 at 2012-07-19 04:48:52
StrixAluco defeated coriannika 52 to 28 at 2012-07-18 22:40:32
jerk.face! defeated StrixAluco 33 to 30 at 2012-07-18 15:26:48
StrixAluco defeated Sal Mel 36 to 24 at 2012-07-18 15:13:47
stardusties defeated StrixAluco 29 to 21 at 2012-07-18 15:01:45
Kevbot101 defeated StrixAluco 33 to 28 at 2012-07-18 14:34:16
StrixAluco defeated -!(John)!- 37 to 27 at 2012-07-16 19:30:26
Logam Punyanitya defeated StrixAluco 26 to 25 at 2012-07-15 20:15:10
grneyedgrl 80 defeated StrixAluco 33 to 27 at 2012-07-15 19:34:05
StrixAluco defeated justjoshng 31 to 29 at 2012-07-14 03:20:37
StrixAluco defeated ali_kira 28 to 27 at 2012-07-14 03:13:08
D3N12EN defeated StrixAluco 45 to 32 at 2012-07-13 04:00:56
StrixAluco and nikkipantss tied at 2012-07-13 03:40:16
StrixAluco defeated danderson666 28 to 27 at 2012-07-13 03:31:42
StrixAluco defeated unknownatthistime 33 to 28 at 2012-07-12 16:03:51
StrixAluco defeated lodewijk206 56 to 22 at 2012-07-12 05:50:45
StrixAluco defeated akusano 33 to 30 at 2012-07-12 05:31:14
StrixAluco and CKhouck tied at 2012-07-11 23:33:20
StrixAluco defeated 23songbird 36 to 22 at 2012-07-11 00:42:56
Slab-Jack defeated StrixAluco 43 to 39 at 2012-07-11 00:31:48
Belakhor defeated StrixAluco 36 to 33 at 2012-07-06 20:53:23
StrixAluco defeated evil_st_nick 33 to 28 at 2012-07-03 00:56:04
StrixAluco defeated evil_st_nick 40 to 21 at 2012-07-03 00:33:30
StrixAluco defeated Ulli der Grosse 31 to 30 at 2012-07-02 16:20:23
guarddawg1 defeated StrixAluco 39 to 30 at 2012-07-02 16:10:42
StrixAluco and Sanuki_Fiori tied at 2012-07-02 05:25:53
Sanuki_Fiori defeated StrixAluco 51 to 34 at 2012-07-02 05:14:37
Sanuki_Fiori defeated StrixAluco 33 to 25 at 2012-07-02 05:06:27
StrixAluco defeated zmrDanec 37 to 20 at 2012-07-02 04:58:58
StrixAluco defeated pupsterrr 37 to 30 at 2012-07-02 02:35:42
StrixAluco defeated evil_st_nick 37 to 27 at 2012-07-01 20:04:43
StrixAluco defeated evil_st_nick 50 to 33 at 2012-07-01 19:44:18
FrackPockets defeated StrixAluco 33 to 30 at 2012-06-28 13:00:40
StrixAluco defeated Grejsen 43 to 36 at 2012-06-26 05:35:42
full_mouse defeated StrixAluco 33 to 22 at 2012-06-26 05:22:56
StrixAluco defeated evil_st_nick 44 to 36 at 2012-06-26 00:54:07
StrixAluco defeated Objobb 33 to 30 at 2012-06-21 05:04:48
StrixAluco defeated frostful 43 to 32 at 2012-06-21 04:48:44
frostful defeated StrixAluco 36 to 26 at 2012-06-21 04:33:53
TheVeebs defeated StrixAluco 39 to 27 at 2012-06-21 03:44:50
StrixAluco defeated berlin0922 34 to 20 at 2012-06-21 03:33:42
StrixAluco and thwitched tied at 2012-06-19 04:47:04
TempestMaker defeated StrixAluco 43 to 24 at 2012-06-18 17:07:58
StrixAluco defeated pepesafari 36 to 29 at 2012-06-18 13:00:07
StrixAluco defeated tomte79 34 to 30 at 2012-06-17 15:40:33
Freudian007 defeated StrixAluco 49 to 37 at 2012-06-16 22:37:16
84kris84 defeated StrixAluco 42 to 29 at 2012-06-15 20:54:53
StrixAluco defeated jnliao77 47 to 31 at 2012-06-15 04:15:34
StrixAluco defeated Josephus777 44 to 42 at 2012-06-15 03:09:25
Josephus777 defeated StrixAluco 34 to 25 at 2012-06-15 03:00:01
StrixAluco defeated vaiduksz 54 to 32 at 2012-06-12 06:21:53
vaiduksz defeated StrixAluco 29 to 25 at 2012-06-12 06:04:00
Strovengard defeated StrixAluco 32 to 31 at 2012-06-11 16:14:26
Josephus777 defeated StrixAluco 60 to 23 at 2012-06-11 15:57:23
StrixAluco defeated WendelTB 33 to 23 at 2012-06-11 15:37:01
StrixAluco defeated Chantal0911 35 to 33 at 2012-06-11 15:28:56
StrixAluco defeated MawhrinSkel 33 to 27 at 2012-06-11 04:59:53
StrixAluco defeated Reini 123 43 to 40 at 2012-06-11 04:54:26
StrixAluco defeated queenmargot 39 to 24 at 2012-06-10 22:21:56
StrixAluco defeated sherego 32 to 27 at 2012-06-10 22:13:36
StrixAluco defeated Focht 46 to 22 at 2012-06-10 04:20:04
opiakanima defeated StrixAluco 42 to 37 at 2012-06-09 03:17:25
hjalmar81 defeated StrixAluco 36 to 31 at 2012-06-06 06:04:52
pr0metheus23 defeated StrixAluco 40 to 37 at 2012-06-02 05:46:20
buggernewt defeated StrixAluco 33 to 28 at 2012-06-02 05:35:21
StrixAluco defeated Scrapling 58 to 56 at 2012-05-15 04:15:45